Weather History for Fairbanks, AK

Change the Weather History Date:

Friday, December 6, 2013

  Actual Average Record
Temperature  
Mean Temperature 20 °F -3 °F  
Max Temperature 25 °F 6 °F 51 °F (1934)
Min Temperature 15 °F -12 °F -58 °F (1935)
Degree Days  
Heating Degree Days 45 68  
Month to date heating degree days 395 405  
Since 1 July heating degree days 3932 4536  
Cooling Degree Days 0 0  
Month to date cooling degree days 0 0  
Year to date cooling degree days 226 61  
Moisture  
Dew Point 17 °F    
Average Humidity 78    
Maximum Humidity 88    
Minimum Humidity 61    
Precipitation  
Precipitation T in 0.02 in 0.30 in (2008)
Month to date precipitation 0.02 0.11  
Year to date precipitation 9.89 10.28  
Snow  
Snow 0.00 in 0.40 in 2.80 in (2008)
Month to date snowfall 0.0 2.2  
Since 1 July snowfall 19.0 28.0  
Snow Depth 10.00 in    
Sea Level Pressure  
Sea Level Pressure 30.45 in    
Wind  
Wind Speed 1 mph (SSW)    
Max Wind Speed 5 mph    
Max Gust Speed -    
Visibility 10 miles    
Events Rain    
T = Trace of Precipitation, MM = Missing Value Source: NWS Daily Summary

Daily Weather History Graph

Daily Weather History Graph

Search for Another Location

Airport:

Trip Planner

Search our weather history database for the weather conditions in past years. The results will help you decide how hot, cold, wet, or windy it might be!

Date:

Astronomy

Dec. 06, 2013 Rise Set
Actual Time 10:34 AM AKST 2:51 PM AKST
Civil Twilight 9:15 AM AKST 4:09 PM AKST
Nautical Twilight 8:05 AM AKST 5:19 PM AKST
Astronomical Twilight 7:04 AM AKST 6:20 PM AKST
Moon 12:28 PM AKST (12/6) 9:00 PM AKST (12/6)
Length of Visible Light 6h 54m
Length of Day
4h 16m
Waxing Crescent, 20% of the Moon is Illuminated
Dec 6
Waxing Crescent
Dec 9
First Quarter
Dec 17
Full
Dec 25
Last Quarter
Jan 1
New

Hourly Weather History & Observations

Time (AKST) Temp. Windchill Dew Point Humidity Pressure Visibility Wind Dir Wind Speed Gust Speed Precip Events Conditions
12:53 AM 19.9 °F - 16.0 °F 85% 30.49 in 10.0 mi Calm Calm - N/A   Mostly Cloudy
1:53 AM 17.1 °F - 12.9 °F 84% 30.49 in 10.0 mi Calm Calm - N/A   Mostly Cloudy
3:22 AM 19.9 °F - 16.0 °F 85% 30.45 in 10.0 mi Calm Calm - N/A Rain Light Freezing Rain
3:45 AM 21.0 °F 14.6 °F 17.1 °F 85% 30.44 in 10.0 mi South 4.6 mph - N/A   Overcast
3:53 AM 21.0 °F 14.6 °F 17.1 °F 85% 30.48 in 10.0 mi South 4.6 mph - N/A   Overcast
4:53 AM 21.9 °F 17.2 °F 18.0 °F 85% 30.48 in 10.0 mi WNW 3.5 mph - N/A   Overcast
5:53 AM 24.1 °F - 18.0 °F 77% 30.47 in 10.0 mi Calm Calm - N/A   Overcast
6:53 AM 24.1 °F - 17.1 °F 75% 30.46 in 10.0 mi Calm Calm - N/A   Overcast
7:53 AM 24.1 °F - 16.0 °F 71% 30.46 in 10.0 mi Calm Calm - N/A   Overcast
8:53 AM 24.1 °F 19.7 °F 16.0 °F 71% 30.46 in 10.0 mi SW 3.5 mph - N/A   Overcast
9:53 AM 24.1 °F - 15.1 °F 69% 30.46 in 10.0 mi Calm Calm - N/A   Overcast
10:53 AM 24.1 °F - 16.0 °F 71% 30.46 in 10.0 mi Calm Calm - N/A   Overcast
11:53 AM 24.1 °F - 17.1 °F 75% 30.46 in 10.0 mi Calm Calm - N/A   Overcast
12:53 PM 25.0 °F - 17.1 °F 72% 30.46 in 10.0 mi Calm Calm - N/A   Overcast
1:53 PM 25.0 °F - 18.0 °F 75% 30.47 in 10.0 mi Calm Calm - N/A   Overcast
2:28 PM 25.0 °F - 17.1 °F 72% 30.42 in 10.0 mi Calm Calm - N/A   Light Freezing Drizzle
2:53 PM 25.0 °F - 17.1 °F 72% 30.46 in 10.0 mi Calm Calm - N/A   Light Freezing Drizzle
3:31 PM 25.0 °F - 18.0 °F 75% 30.41 in 10.0 mi Calm Calm - N/A   Overcast
3:53 PM 25.0 °F - 18.0 °F 75% 30.45 in 10.0 mi Calm Calm - N/A   Overcast
4:01 PM 25.0 °F - 18.0 °F 75% 30.41 in 10.0 mi Calm Calm - N/A   Light Freezing Drizzle
4:53 PM 24.1 °F - 18.0 °F 77% 30.44 in 10.0 mi Calm Calm - N/A   Light Freezing Drizzle
5:19 PM 24.1 °F - 19.0 °F 81% 30.40 in 10.0 mi Calm Calm - N/A   Overcast
5:53 PM 24.1 °F - 19.0 °F 81% 30.43 in 10.0 mi Calm Calm - N/A   Overcast
6:53 PM 23.0 °F - 19.0 °F 85% 30.43 in 10.0 mi Calm Calm - N/A   Overcast
7:53 PM 21.9 °F - 18.0 °F 85% 30.42 in 10.0 mi Calm Calm - N/A   Overcast
8:53 PM 21.0 °F - 17.1 °F 85% 30.43 in 10.0 mi Calm Calm - N/A   Mostly Cloudy
9:53 PM 19.0 °F - 16.0 °F 88% 30.42 in 10.0 mi Calm Calm - N/A   Mostly Cloudy
10:53 PM 21.9 °F - 18.0 °F 85% 30.43 in 10.0 mi Calm Calm - N/A   Overcast
11:53 PM 25.0 °F - 19.9 °F 81% 30.43 in 10.0 mi Calm Calm - N/A   Overcast